Location: Laupheim
(48.2265°N, 9.8829°E)
Time: 22:44:12
(UTC+01:00)

Amateur Radio Satellites - All Passes

Search period start: 23 January 2018 22:14
Search period end: 24 January 2018 22:14
Location: Laupheim, 48.2265°N, 9.8829°E

Satellite Date Start Highest point End Downlink Frequencies (MHz)
Time Altitude Azimuth
UNISAT 6 23 Jan 22:27:20 22:32:03 77° 286° (WNW) 22:36:45 437.425
YUBILEINY 23 Jan 22:31:12 22:39:34 50° 89° (E) 22:47:55 435.215
SPROUT 23 Jan 22:39:00 22:41:53 18° 61° (ENE) 22:44:46 437.525
nSIGHT-1 23 Jan 22:41:32 22:44:35 43° 356° (N) 22:47:38 .
NO-84 23 Jan 22:53:56 22:56:42 50° 217° (SW) 22:59:30 435.350 FM
FO-29 23 Jan 22:55:28 22:57:01 11° 310° (NW) 22:58:33 435.910
LO-87 23 Jan 23:01:21 23:04:50 55° 259° (W) 23:08:24 145.935 - 145.965
VELOX 1 23 Jan 23:05:06 23:08:15 20° 61° (ENE) 23:11:24 145.980
ISS 23 Jan 23:07:03 23:10:12 43° 358° (N) 23:13:22 437.550
EO-79 23 Jan 23:14:34 23:16:42 13° 89° (E) 23:18:49 145.935-145.965
ESTCUBE 1 23 Jan 23:17:46 23:22:12 55° 260° (W) 23:26:39 437.505/2401.250
PRISM 23 Jan 23:19:10 23:23:16 85° 101° (E) 23:27:22 437.425
O/OREOS (USA 219) 23 Jan 23:19:10 23:22:18 19° 101° (ESE) 23:25:26 437.305
TIGRISAT 23 Jan 23:48:57 23:52:03 18° 301° (WNW) 23:55:08 435.000
POLYITAN 1 23 Jan 23:49:09 23:52:56 29° 95° (E) 23:56:41 437.675
AIST 2D 23 Jan 23:56:33 00:00:00 63° 285° (WNW) 00:03:25 435.315
NANOSAT C BR1 24 Jan 00:01:42 00:05:38 34° 97° (E) 00:09:32 145.865
UNISAT 6 24 Jan 00:06:05 00:07:57 12° 305° (NW) 00:09:50 437.425
SPROUT 24 Jan 00:13:11 00:17:21 56° 259° (W) 00:21:35 437.525
nSIGHT-1 24 Jan 00:17:53 00:21:02 63° 16° (NNE) 00:24:12 .
QB50P2 24 Jan 00:18:51 00:23:08 65° 101° (E) 00:27:23 145.880/145.840
YUBILEINY 24 Jan 00:28:14 00:36:32 44° 291° (WNW) 00:44:52 435.215
UKube-1 24 Jan 00:29:14 00:32:14 19° 61° (ENE) 00:35:14 .
VELOX 1 24 Jan 00:40:03 00:44:20 53° 260° (W) 00:48:39 145.980
DUCHIFAT 1 24 Jan 00:43:23 00:47:41 80° 105° (ESE) 00:51:55 145.980
ISS 24 Jan 00:43:42 00:46:58 69° 18° (NNE) 00:50:14 437.550
DX 1 24 Jan 00:46:30 00:50:33 40° 68° (ENE) 00:54:37 434.975-435.025
EO-79 24 Jan 00:48:39 00:52:56 70° 287° (WNW) 00:57:11 145.935-145.965
50 SAT 24 Jan 00:56:14 00:59:06 36° 71° (ENE) 01:01:59 437.505
PRISM 24 Jan 00:56:21 00:57:55 12° 303° (WNW) 00:59:31 437.425
O/OREOS (USA 219) 24 Jan 00:56:52 01:01:18 55° 300° (WNW) 01:05:44 437.305
POLYITAN 1 24 Jan 01:24:53 01:28:41 32° 294° (WNW) 01:32:30 437.675
ITUPSAT 1 24 Jan 01:25:22 01:28:04 15° 56° (NE) 01:30:47 437.325
MOZHAYETS 4 24 Jan 01:25:26 01:28:58 22° 62° (ENE) 01:32:32
BUGSAT 1 24 Jan 01:32:22 01:36:36 64° 101° (ESE) 01:40:49 437.445
NANOSAT C BR1 24 Jan 01:37:37 01:41:13 27° 295° (WNW) 01:44:48 145.865
AO-91 24 Jan 01:42:54 01:47:23 60° 101° (E) 01:52:19 145.960
nSIGHT-1 24 Jan 01:54:13 01:57:04 31° 215° (SW) 01:59:56 .
Oscar 19 24 Jan 01:54:31 01:59:40 62° 102° (ESE) 02:04:45 437.125/150
QB50P2 24 Jan 01:55:48 01:58:26 16° 300° (WNW) 02:01:04 145.880/145.840
BEESAT 24 Jan 02:01:07 02:05:13 29° 64° (ENE) 02:09:20 436.000
UKube-1 24 Jan 02:03:40 02:07:52 55° 259° (W) 02:12:07 .
Gurwin Techsat 1B 24 Jan 02:05:29 02:10:46 59° 101° (E) 02:16:00 435.225
ISS 24 Jan 02:20:23 02:23:16 28° 217° (SW) 02:26:08 437.550
DUCHIFAT 1 24 Jan 02:20:38 02:22:43 14° 302° (WNW) 02:24:49 145.980
DX 1 24 Jan 02:23:25 02:26:53 23° 266° (W) 02:30:21 434.975-435.025
50 SAT 24 Jan 02:29:27 02:30:57 13° 268° (W) 02:32:29 437.505
AO-7 24 Jan 02:30:40 02:36:41 21° 89° (E) 02:42:38 .
YUBILEINY 24 Jan 02:34:06 02:36:21 11° 318° (NW) 02:38:37 435.215
O/OREOS (USA 219) 24 Jan 02:40:40 02:41:45 11° 321° (NW) 02:42:50 437.305
ITUPSAT 1 24 Jan 03:00:26 03:05:13 87° 251° (WSW) 03:10:04 437.325
MOZHAYETS 4 24 Jan 03:01:16 03:05:47 52° 260° (W) 03:10:21
ITAMSAT 1 24 Jan 03:08:36 03:12:07 18° 90° (E) 03:15:38 435.822/435.867
BUGSAT 1 24 Jan 03:08:50 03:11:29 16° 300° (WNW) 03:14:08 437.445
CUBESAT XI-V 24 Jan 03:12:40 03:17:16 59° 72° (ENE) 03:21:53 437.345
AO-91 24 Jan 03:20:17 03:23:32 20° 296° (WNW) 03:27:00 145.960
Oscar 19 24 Jan 03:34:37 03:38:34 22° 301° (WNW) 03:42:29 437.125/150
BEESAT 24 Jan 03:38:24 03:42:51 39° 262° (W) 03:47:21 436.000
Gurwin Techsat 1B 24 Jan 03:46:09 03:50:19 24° 300° (WNW) 03:54:31 435.225
SO-50 24 Jan 03:51:28 03:53:21 13° 109° (ESE) 03:55:16 436.795
KKS-1 24 Jan 04:06:59 04:10:59 35° 67° (ENE) 04:15:02 437.445
STARS 24 Jan 04:14:36 04:17:40 19° 61° (ENE) 04:20:45 437.465
AO-7 24 Jan 04:22:10 04:30:37 86° 112° (ESE) 04:38:59 .
FALCONSAT 3 24 Jan 04:29:01 04:30:05 11° 175° (S) 04:31:10 435.103
ITUPSAT 1 24 Jan 04:42:06 04:43:46 12° 273° (W) 04:45:27 437.325
M-CUBED/EXP-1 PRIME 24 Jan 04:46:28 04:48:28 15° 98° (E) 04:50:27 437.505
ITAMSAT 1 24 Jan 04:46:54 04:52:06 70° 288° (WNW) 04:57:17 435.822/435.867
CUBESAT XI-V 24 Jan 04:51:47 04:55:01 18° 270° (W) 04:58:15 437.345
DOVE 4 24 Jan 05:08:08 05:12:30 65° 101° (ESE) 05:17:06 437.250
SO-50 24 Jan 05:28:36 05:33:04 87° 126° (SE) 05:37:39 436.795
XW-2F 24 Jan 05:32:09 05:34:21 15° 90° (E) 05:36:32 145.980 - 146.000
FO-29 24 Jan 05:41:04 05:44:39 16° 55° (NE) 05:48:02 435.910
KKS-1 24 Jan 05:43:48 05:47:36 28° 265° (W) 05:51:24 437.445
XW-2D 24 Jan 05:44:10 05:47:12 22° 94° (E) 05:50:11 145.860 - 145.880
RS-15 24 Jan 05:44:55 05:50:54 15° 93° (E) 05:56:49 29.354- 29.394
STARS 24 Jan 05:49:20 05:53:36 55° 259° (W) 05:57:56 437.465
STRAND 1 24 Jan 05:52:51 05:57:14 30° 63° (ENE) 06:01:39 437.568
XW-2B 24 Jan 06:01:37 06:05:04 33° 97° (E) 06:08:28 145.730 - 145.750
AO-7 24 Jan 06:15:43 06:22:30 29° 312° (NW) 06:29:16 .
M-CUBED/EXP-1 PRIME 24 Jan 06:19:58 06:23:06 36° 296° (WNW) 06:26:08 437.505
SEEDS 24 Jan 06:27:02 06:28:59 13° 88° (E) 06:30:53 437.485
ITAMSAT 1 24 Jan 06:28:23 06:30:40 13° 308° (NW) 06:32:57 435.822/435.867
XW-2C 24 Jan 06:31:59 06:35:46 77° 103° (ESE) 06:39:30 145.795 - 145.815
LilacSat-2 24 Jan 06:34:10 06:37:58 89° 97° (E) 06:41:44 437.200
HO-68 24 Jan 06:37:51 06:44:18 35° 95° (E) 06:50:42 435.675
CUTE-I 24 Jan 06:43:46 06:49:06 67° 103° (ESE) 06:54:24 437.470
CUTE 1.7 + AOD 2 24 Jan 06:44:56 06:48:43 31° 95° (E) 06:52:28 437.475
DOVE 4 24 Jan 06:47:00 06:49:47 17° 299° (WNW) 06:52:40 437.250
KAITUO 1B 24 Jan 06:57:14 07:00:56 76° 285° (WNW) 07:04:36 145.475/437.950
NUDT-PHONESAT 24 Jan 07:01:53 07:05:33 71° 286° (WNW) 07:09:11 437.300
XW-2F 24 Jan 07:05:07 07:08:43 47° 288° (WNW) 07:12:17 145.980 - 146.000
SO-50 24 Jan 07:10:38 07:14:08 22° 329° (NNW) 07:17:42 436.795
XW-2D 24 Jan 07:18:03 07:21:24 31° 292° (WNW) 07:24:44 145.860 - 145.880
FO-29 24 Jan 07:22:28 07:29:02 78° 73° (ENE) 07:34:50 435.910
UWE-3 24 Jan 07:30:09 07:34:31 37° 96° (E) 07:38:47 435.000/436.395/437.385
STRAND 1 24 Jan 07:31:26 07:36:15 43° 262° (W) 07:41:08 437.568
CUBEBUG 2 24 Jan 07:31:49 07:36:35 65° 101° (E) 07:41:17 437.445
AAUSAT CUBESAT 2 24 Jan 07:32:16 07:35:47 26° 94° (E) 07:39:15 437.432
XW-2B 24 Jan 07:36:08 07:39:04 22° 295° (WNW) 07:41:59 145.730 - 145.750
TIGRISAT 24 Jan 07:39:15 07:41:26 13° 56° (ENE) 07:43:38 435.000
O/OREOS (USA 219) 24 Jan 07:46:10 07:48:05 12° 41° (NE) 07:49:59 437.305
ZACube-1 24 Jan 07:46:15 07:50:14 29° 94° (E) 07:54:08 437.345
RS-15 24 Jan 07:48:42 08:00:39 60° 116° (ESE) 08:12:24 29.354- 29.394
AO-73 24 Jan 07:50:52 07:54:48 28° 94° (E) 07:58:39 145.935
UNISAT 6 24 Jan 07:54:16 07:57:28 19° 61° (ENE) 08:00:43 437.425
SEEDS 24 Jan 08:00:59 08:05:08 68° 285° (WNW) 08:09:14 437.485
XW-2A 24 Jan 08:02:16 08:05:29 42° 99° (E) 08:08:40 145.665 - 145.685
XW-2C 24 Jan 08:08:13 08:09:21 11° 301° (WNW) 08:10:31 145.795 - 145.815
LilacSat-2 24 Jan 08:11:27 08:11:35 10° 302° (WNW) 08:11:44 437.200
Oscar 11 24 Jan 08:20:09 08:24:06 34° 96° (E) 08:28:01 .
CUTE 1.7 + AOD 2 24 Jan 08:20:52 08:24:28 28° 294° (WNW) 08:28:04 437.475
CUTE-I 24 Jan 08:24:42 08:28:41 22° 302° (WNW) 08:32:38 437.470
HO-68 24 Jan 08:25:22 08:32:20 56° 295° (WNW) 08:39:16 435.675
YUBILEINY 24 Jan 08:36:39 08:44:10 31° 62° (ENE) 08:51:37 435.215
PRISM 24 Jan 08:39:13 08:40:46 12° 57° (ENE) 08:42:20 437.425
SO-50 24 Jan 08:55:12 08:56:20 11° 354° (N) 08:57:26 436.795
PCSat 24 Jan 08:59:44 09:04:37 36° 113° (ESE) 09:09:32 145.827
UWE-3 24 Jan 09:06:47 09:10:50 29° 295° (WNW) 09:14:49 435.000/436.395/437.385
Max Valier Satellite 24 Jan 09:07:29 09:09:16 13° 89° (E) 09:11:02 145.860
AAUSAT CUBESAT 2 24 Jan 09:07:35 09:11:14 32° 292° (WNW) 09:14:53 437.432
CUBEBUG 2 24 Jan 09:09:23 09:12:43 19° 299° (WNW) 09:16:01 437.445
FO-29 24 Jan 09:10:06 09:14:37 20° 269° (W) 09:18:50 435.910
DELFI C3 24 Jan 09:11:04 09:14:12 22° 93° (E) 09:17:19 145.870
TIGRISAT 24 Jan 09:12:54 09:17:23 89° 57° (ENE) 09:22:01 435.000
EO-88 24 Jan 09:18:23 09:19:26 11° 88° (E) 09:20:29 145.990 - 145.960
ZACube-1 24 Jan 09:22:23 09:26:33 35° 292° (WNW) 09:30:37 437.345
BEESAT 3 24 Jan 09:22:51 09:26:49 68° 124° (SE) 09:30:47 437.485
O/OREOS (USA 219) 24 Jan 09:23:54 09:28:24 68° 63° (ENE) 09:32:51 437.305
AO-73 24 Jan 09:26:55 09:31:04 35° 292° (WNW) 09:35:08 145.935
UNISAT 6 24 Jan 09:29:19 09:33:44 58° 259° (W) 09:38:18 437.425
XW-2A 24 Jan 09:35:56 09:37:50 14° 297° (WNW) 09:39:44 145.665 - 145.685
QB50P2 24 Jan 09:42:47 09:43:36 10° 56° (NE) 09:44:26 145.880/145.840
Oscar 11 24 Jan 09:56:28 10:00:08 28° 294° (WNW) 10:03:48 .
RS-15 24 Jan 10:01:19 10:13:26 58° 322° (NW) 10:25:16 29.354- 29.394
DUCHIFAT 1 24 Jan 10:05:34 10:07:16 12° 57° (ENE) 10:08:58 145.980
EO-79 24 Jan 10:10:08 10:12:55 17° 60° (ENE) 10:15:41 145.935-145.965
PRISM 24 Jan 10:11:21 10:15:25 84° 256° (WSW) 10:19:30 437.425
HO-68 24 Jan 10:14:56 10:18:36 15° 317° (NW) 10:22:14 435.675
BEESAT 2 24 Jan 10:19:30 10:23:30 71° 125° (SE) 10:27:33 435.950
YUBILEINY 24 Jan 10:33:07 10:41:49 72° 266° (W) 10:50:25 435.215
AIST 2D 24 Jan 10:33:23 10:36:54 77° 77° (ENE) 10:40:26 435.315
AO-85 24 Jan 10:35:42 10:38:08 16° 110° (ESE) 10:40:41 145.980
SO-50 24 Jan 10:36:26 10:38:49 14° 19° (NNE) 10:41:14 436.795
Max Valier Satellite 24 Jan 10:39:47 10:43:25 54° 287° (WNW) 10:47:00 145.860
PCSat 24 Jan 10:42:45 10:47:56 45° 313° (NW) 10:53:09 145.827
POLYITAN 1 24 Jan 10:44:46 10:48:37 35° 68° (ENE) 10:52:32 437.675
DELFI C3 24 Jan 10:45:26 10:49:01 34° 291° (WNW) 10:52:36 145.870
EO-88 24 Jan 10:49:52 10:53:28 62° 287° (WNW) 10:57:03 145.990 - 145.960
TIGRISAT 24 Jan 10:53:22 10:54:47 11° 275° (W) 10:56:12 435.000
NANOSAT C BR1 24 Jan 10:56:47 11:00:44 40° 69° (ENE) 11:04:44 145.865
BEESAT 3 24 Jan 11:01:38 11:04:43 21° 325° (NW) 11:07:48 437.485
O/OREOS (USA 219) 24 Jan 11:04:41 11:07:14 15° 261° (W) 11:09:48 437.305
ESTCUBE 1 24 Jan 11:06:47 11:10:26 24° 93° (E) 11:14:04 437.505/2401.250
QB50P2 24 Jan 11:14:23 11:18:37 76° 74° (ENE) 11:22:54 145.880/145.840
Oscar 19 24 Jan 11:37:23 11:41:15 22° 59° (ENE) 11:45:09 437.125/150
DUCHIFAT 1 24 Jan 11:38:02 11:42:15 89° 253° (WSW) 11:46:32 145.980
EO-79 24 Jan 11:44:02 11:48:13 59° 259° (W) 11:52:27 145.935-145.965
AO-7 24 Jan 11:46:17 11:50:12 14° 33° (NNE) 11:54:07 .
Gurwin Techsat 1B 24 Jan 11:52:04 11:56:07 23° 59° (ENE) 12:00:11 435.225
SPROUT 24 Jan 11:55:34 11:58:40 19° 91° (E) 12:01:44 437.525
LO-87 24 Jan 11:57:25 12:01:04 76° 283° (WNW) 12:04:41 145.935 - 145.965
BEESAT 2 24 Jan 11:58:32 12:01:38 21° 325° (NW) 12:04:46 435.950
AO-85 24 Jan 12:13:55 12:17:57 67° 311° (NW) 12:22:20 145.980
SO-50 24 Jan 12:16:09 12:20:32 39° 41° (NE) 12:24:59 436.795
RS-15 24 Jan 12:18:05 12:29:02 36° 354° (N) 12:39:36 29.354- 29.394
POLYITAN 1 24 Jan 12:20:52 12:24:27 26° 266° (W) 12:28:05 437.675
BUGSAT 1 24 Jan 12:25:01 12:29:05 70° 74° (ENE) 12:33:16 437.445
VELOX 1 24 Jan 12:26:37 12:30:01 22° 93° (E) 12:33:24 145.980
PCSat 24 Jan 12:29:40 12:32:45 15° 337° (NNW) 12:35:51 145.827
YUBILEINY 24 Jan 12:32:10 12:36:56 16° 288° (WNW) 12:41:43 435.215
NANOSAT C BR1 24 Jan 12:33:15 12:36:35 22° 267° (W) 12:39:57 145.865
ESTCUBE 1 24 Jan 12:43:10 12:47:24 41° 291° (WNW) 12:51:35 437.505/2401.250
AO-91 24 Jan 12:44:25 12:47:48 68° 73° (ENE) 12:51:26 145.960
QB50P2 24 Jan 12:53:13 12:54:56 12° 272° (W) 12:56:40 145.880/145.840
Oscar 19 24 Jan 13:14:57 13:20:07 65° 258° (WSW) 13:25:20 437.125/150
Gurwin Techsat 1B 24 Jan 13:30:22 13:35:37 64° 258° (WSW) 13:40:56 435.225
SPROUT 24 Jan 13:30:39 13:34:49 49° 289° (WNW) 13:38:57 437.525
AO-7 24 Jan 13:33:07 13:40:50 44° 57° (ENE) 13:48:35 .
50 SAT 24 Jan 13:38:53 13:40:59 16° 94° (E) 13:43:03 437.505
UKube-1 24 Jan 13:47:32 13:50:33 18° 92° (E) 13:53:33 .
AO-85 24 Jan 13:56:26 13:59:15 17° 335° (NNW) 14:02:12 145.980
SO-50 24 Jan 13:56:40 14:01:02 38° 241° (WSW) 14:05:26 436.795
VELOX 1 24 Jan 14:02:28 14:06:40 45° 290° (WNW) 14:10:51 145.980
BUGSAT 1 24 Jan 14:03:08 14:04:57 13° 272° (W) 14:06:47 437.445
DX 1 24 Jan 14:06:38 14:10:49 44° 100° (E) 14:14:59 434.975-435.025
PCSat 24 Jan 14:17:59 14:18:40 10° 3° (N) 14:19:21 145.827
ITAMSAT 1 24 Jan 14:29:37 14:34:25 40° 66° (ENE) 14:39:14 435.822/435.867
RS-15 24 Jan 14:33:44 14:45:11 46° 28° (NNE) 14:56:02 29.354- 29.394
DOVE 4 24 Jan 14:42:50 14:44:25 12° 58° (ENE) 14:46:00 437.250
MOZHAYETS 4 24 Jan 14:52:41 14:56:41 28° 94° (E) 15:00:39
ITUPSAT 1 24 Jan 14:58:03 15:01:25 18° 91° (E) 15:04:44 437.325
CUBESAT XI-V 24 Jan 15:07:53 15:09:07 11° 86° (E) 15:10:20 437.345
50 SAT 24 Jan 15:09:59 15:12:43 28° 291° (WNW) 15:15:27 437.505
UKube-1 24 Jan 15:22:39 15:26:51 51° 290° (WNW) 15:31:01 .
AO-7 24 Jan 15:25:18 15:33:26 55° 258° (WSW) 15:41:40 .
HO-68 24 Jan 15:30:02 15:31:02 10° 37° (NE) 15:32:02 435.675
M-CUBED/EXP-1 PRIME 24 Jan 15:33:43 15:37:42 46° 65° (ENE) 15:41:26 437.505
BEESAT 24 Jan 15:34:20 15:38:50 39° 98° (E) 15:43:19 436.000
DX 1 24 Jan 15:43:21 15:46:44 23° 297° (WNW) 15:50:07 434.975-435.025
NO-84 24 Jan 15:47:53 15:50:17 20° 136° (SE) 15:52:35 435.350 FM
BEESAT 3 24 Jan 15:59:05 16:02:12 22° 36° (NE) 16:05:17 437.485
PCSat 24 Jan 16:00:36 16:04:24 19° 30° (NNE) 16:08:10 145.827
ITAMSAT 1 24 Jan 16:09:23 16:13:58 31° 264° (W) 16:18:34 435.822/435.867
XW-2F 24 Jan 16:16:41 16:18:40 14° 61° (ENE) 16:20:39 145.980 - 146.000
DOVE 4 24 Jan 16:17:18 16:21:30 84° 254° (WSW) 16:25:41 437.250
XW-2D 24 Jan 16:28:50 16:31:39 20° 65° (ENE) 16:34:29 145.860 - 145.880
MOZHAYETS 4 24 Jan 16:29:38 16:33:54 37° 293° (WNW) 16:38:08
CUTE-I 24 Jan 16:30:43 16:35:00 26° 60° (ENE) 16:39:18 437.470
ITUPSAT 1 24 Jan 16:34:52 16:39:38 61° 289° (WNW) 16:44:23 437.325
CUBESAT XI-V 24 Jan 16:42:32 16:47:12 87° 107° (ESE) 16:51:47 437.345
XW-2B 24 Jan 16:46:01 16:49:20 28° 68° (ENE) 16:52:37 145.730 - 145.750
RS-15 24 Jan 16:47:00 16:58:50 81° 237° (WSW) 17:10:00 29.354- 29.394
BEESAT 2 24 Jan 16:56:27 16:59:44 23° 36° (NE) 17:02:59 435.950
CUBEBUG 2 24 Jan 16:59:54 17:01:35 12° 55° (NE) 17:03:17 437.445
M-CUBED/EXP-1 PRIME 24 Jan 17:09:10 17:12:14 19° 260° (W) 17:15:09 437.505
HO-68 24 Jan 17:10:22 17:16:50 39° 59° (ENE) 17:23:19 435.675
BEESAT 24 Jan 17:12:21 17:16:29 29° 296° (WNW) 17:20:35 436.000
XW-2C 24 Jan 17:16:04 17:19:50 61° 73° (ENE) 17:23:37 145.795 - 145.815
LilacSat-2 24 Jan 17:18:51 17:22:42 72° 76° (ENE) 17:26:32 437.200
AO-85 24 Jan 17:21:03 17:23:59 16° 24° (NNE) 17:27:01 145.980
SEEDS 24 Jan 17:21:59 17:24:29 16° 61° (ENE) 17:27:00 437.485
NO-84 24 Jan 17:24:13 17:27:14 58° 332° (NNW) 17:30:07 435.350 FM
AO-7 24 Jan 17:26:31 17:28:11 11° 279° (W) 17:29:52 .
KKS-1 24 Jan 17:30:05 17:34:19 41° 98° (E) 17:38:33 437.445
STARS 24 Jan 17:35:22 17:38:40 20° 92° (E) 17:41:56 437.465
BEESAT 3 24 Jan 17:36:10 17:40:04 61° 235° (SW) 17:43:52 437.485
KAITUO 1B 24 Jan 17:39:50 17:43:35 82° 75° (ENE) 17:47:21 145.475/437.950
CUTE 1.7 + AOD 2 24 Jan 17:40:41 17:44:34 35° 68° (ENE) 17:48:27 437.475
PCSat 24 Jan 17:43:25 17:48:51 65° 53° (NE) 17:54:14 145.827
NUDT-PHONESAT 24 Jan 17:43:29 17:47:13 84° 75° (ENE) 17:50:58 437.300
XW-2F 24 Jan 17:48:33 17:52:19 61° 259° (W) 17:56:05 145.980 - 146.000
XW-2D 24 Jan 18:02:00 18:05:35 38° 262° (W) 18:09:11 145.860 - 145.880
CUTE-I 24 Jan 18:09:32 18:14:44 55° 259° (W) 18:19:58 437.470
ITUPSAT 1 24 Jan 18:15:45 18:16:30 10° 308° (NW) 18:17:15 437.325
XW-2B 24 Jan 18:20:14 18:23:27 26° 265° (W) 18:26:43 145.730 - 145.750
CUBESAT XI-V 24 Jan 18:21:32 18:23:54 14° 303° (WNW) 18:26:14 437.345
AAUSAT CUBESAT 2 24 Jan 18:25:32 18:29:04 28° 67° (ENE) 18:32:37 437.432
UWE-3 24 Jan 18:30:05 18:34:22 44° 70° (ENE) 18:38:46 435.000/436.395/437.385
CUBEBUG 2 24 Jan 18:32:54 18:37:21 79° 76° (ENE) 18:42:00 437.445
BEESAT 2 24 Jan 18:33:47 18:37:46 59° 236° (SW) 18:41:39 435.950
XW-2A 24 Jan 18:36:29 18:39:23 26° 68° (ENE) 18:42:17 145.665 - 145.685
ZACube-1 24 Jan 18:44:59 18:49:04 35° 67° (ENE) 18:53:13 437.345
AO-73 24 Jan 18:49:15 18:53:18 34° 67° (ENE) 18:57:26 145.935
XW-2C 24 Jan 18:52:44 18:54:23 12° 271° (W) 18:56:03 145.795 - 145.815
SEEDS 24 Jan 18:55:31 18:59:42 64° 259° (W) 19:03:54 437.485
LilacSat-2 24 Jan 18:56:27 18:57:26 11° 272° (W) 18:58:25 437.200
HO-68 24 Jan 18:57:27 19:04:23 52° 260° (W) 19:11:23 435.675
AO-85 24 Jan 19:00:45 19:05:27 50° 45° (NE) 19:10:30 145.980
RS-15 24 Jan 19:01:00 19:09:17 24° 261° (W) 19:17:20 29.354- 29.394
NO-84 24 Jan 19:02:27 19:04:49 22° 353° (N) 19:07:06 435.350 FM
ISS 24 Jan 19:03:45 19:05:15 13° 135° (SE) 19:06:44 437.550
KKS-1 24 Jan 19:07:02 19:10:41 25° 297° (WNW) 19:14:19 437.445
STARS 24 Jan 19:10:58 19:15:15 49° 290° (WNW) 19:19:31 437.465
CUTE 1.7 + AOD 2 24 Jan 19:16:54 19:20:27 25° 266° (W) 19:24:01 437.475
Oscar 11 24 Jan 19:18:01 19:22:06 40° 69° (ENE) 19:26:11 .
PCSat 24 Jan 19:27:35 19:31:47 23° 252° (WSW) 19:35:58 145.827
STRAND 1 24 Jan 19:37:43 19:42:44 49° 100° (E) 19:47:43 437.568
Max Valier Satellite 24 Jan 19:50:25 19:51:42 11° 60° (ENE) 19:52:58 145.860
DELFI C3 24 Jan 19:59:41 20:02:41 21° 65° (ENE) 20:05:41 145.870
AAUSAT CUBESAT 2 24 Jan 20:00:49 20:04:28 30° 265° (W) 20:08:07 437.432
UWE-3 24 Jan 20:07:25 20:11:01 23° 268° (W) 20:14:42 435.000/436.395/437.385
nSIGHT-1 24 Jan 20:08:18 20:11:23 53° 151° (SSE) 20:14:29 .
XW-2A 24 Jan 20:09:17 20:12:02 22° 266° (W) 20:14:48 145.665 - 145.685
CUBEBUG 2 24 Jan 20:12:29 20:14:36 13° 274° (W) 20:16:45 437.445
FO-29 24 Jan 20:12:41 20:17:40 45° 99° (E) 20:22:43 435.910
ZACube-1 24 Jan 20:21:25 20:25:21 29° 266° (W) 20:29:23 437.345
AO-73 24 Jan 20:25:34 20:29:32 30° 266° (W) 20:33:35 145.935
ISS 24 Jan 20:37:58 20:41:12 65° 153° (SSE) 20:44:27 437.550
NO-84 24 Jan 20:40:07 20:42:35 26° 14° (NNE) 20:45:02 435.350 FM
AO-85 24 Jan 20:41:24 20:45:47 32° 243° (WSW) 20:50:22 145.980
Oscar 11 24 Jan 20:54:53 20:58:23 23° 267° (W) 21:01:53 .
TIGRISAT 24 Jan 21:01:43 21:04:39 16° 89° (E) 21:07:33 435.000
STRAND 1 24 Jan 21:17:24 21:21:39 27° 298° (WNW) 21:25:55 437.568
UNISAT 6 24 Jan 21:17:30 21:21:20 24° 92° (E) 21:25:09 437.425
Max Valier Satellite 24 Jan 21:21:13 21:24:56 75° 258° (WSW) 21:28:42 145.860
EO-88 24 Jan 21:30:07 21:33:47 88° 266° (W) 21:37:27 145.990 - 145.960
DELFI C3 24 Jan 21:33:35 21:37:12 37° 263° (W) 21:40:52 145.870
YUBILEINY 24 Jan 21:43:21 21:50:34 30° 80° (E) 21:57:45 435.215
nSIGHT-1 24 Jan 21:44:30 21:47:36 49° 349° (N) 21:50:42 .
FO-29 24 Jan 21:58:17 22:02:38 28° 298° (WNW) 22:07:01 435.910
